Time,TemperatureF,DewpointF,PressureIn,WindDirection,WindDirectionDegrees,WindSpeedMPH,WindSpeedGustMPH,Humidity,HourlyPrecipIn,Conditions,Clouds,dailyrainin,SoftwareType,DateUTC
2013-04-21 00:03:00,42.0,27.0,-100.00,North,4,0.0,0.0,54,0.00,,,0.00,,2013-04-21 04:03:00,
2013-04-21 00:13:00,42.0,27.0,-100.00,North,4,0.0,0.0,54,0.00,,,0.00,,2013-04-21 04:13:00,
2013-04-21 00:23:00,43.0,24.0,-100.00,NNE,18,1.0,1.0,46,0.00,,,0.00,,2013-04-21 04:23:00,
2013-04-21 00:33:00,43.0,24.0,-100.00,NNE,18,1.0,1.0,46,0.00,,,0.00,,2013-04-21 04:33:00,
2013-04-21 00:42:00,43.0,24.0,-100.00,NNE,18,1.0,1.0,46,0.00,,,0.00,,2013-04-21 04:42:00,
2013-04-21 01:02:00,39.0,28.0,-100.00,NW,316,2.0,3.0,66,0.00,,,0.00,,2013-04-21 05:02:00,
2013-04-21 01:12:00,39.0,28.0,-100.00,NW,316,2.0,3.0,66,0.00,,,0.00,,2013-04-21 05:12:00,
2013-04-21 01:22:00,40.0,27.0,-100.00,NNW,329,1.0,2.0,60,0.00,,,0.00,,2013-04-21 05:22:00,
2013-04-21 01:32:00,40.0,27.0,-100.00,NNW,329,1.0,2.0,60,0.00,,,0.00,,2013-04-21 05:32:00,
2013-04-21 01:43:00,-999.0,29.0,-100.00,NNW,335,2.0,2.0,70,0.00,,,0.00,,2013-04-21 05:43:00,
2013-04-21 01:52:00,-999.0,29.0,-100.00,NNW,335,2.0,2.0,70,0.00,,,0.00,,2013-04-21 05:52:00,
2013-04-21 02:01:00,38.0,27.0,-100.00,East,97,3.0,5.0,65,0.00,,,0.00,,2013-04-21 06:01:00,
2013-04-21 02:12:00,38.0,27.0,-100.00,East,97,3.0,5.0,65,0.00,,,0.00,,2013-04-21 06:12:00,
2013-04-21 02:22:00,39.0,27.0,-100.00,NW,319,0.0,1.0,62,0.00,,,0.00,,2013-04-21 06:22:00,
2013-04-21 02:32:00,39.0,27.0,-100.00,NW,319,0.0,1.0,62,0.00,,,0.00,,2013-04-21 06:32:00,
2013-04-21 02:42:00,39.0,27.0,-100.00,NW,319,0.0,1.0,62,0.00,,,0.00,,2013-04-21 06:42:00,
2013-04-21 03:02:00,36.0,28.0,-100.00,North,350,1.0,1.0,74,0.00,,,0.00,,2013-04-21 07:02:00,
2013-04-21 03:12:00,36.0,28.0,-100.00,North,350,1.0,1.0,74,0.00,,,0.00,,2013-04-21 07:12:00,
2013-04-21 03:22:00,38.0,27.0,-100.00,NNW,339,0.0,1.0,63,0.00,,,0.00,,2013-04-21 07:22:00,
2013-04-21 03:32:00,38.0,27.0,-100.00,NNW,339,0.0,1.0,63,0.00,,,0.00,,2013-04-21 07:32:00,
2013-04-21 03:42:00,35.0,28.0,-100.00,NNE,17,2.0,3.0,75,0.00,,,0.00,,2013-04-21 07:42:00,
2013-04-21 03:52:00,35.0,28.0,-100.00,NNE,17,2.0,3.0,75,0.00,,,0.00,,2013-04-21 07:52:00,
2013-04-21 04:02:00,40.0,24.0,-100.00,ENE,69,4.0,7.0,52,0.00,,,0.00,,2013-04-21 08:02:00,
2013-04-21 04:12:00,40.0,24.0,-100.00,ENE,69,4.0,7.0,52,0.00,,,0.00,,2013-04-21 08:12:00,
2013-04-21 04:22:00,40.0,25.0,-100.00,ENE,59,4.0,5.0,54,0.00,,,0.00,,2013-04-21 08:22:00,
2013-04-21 04:32:00,40.0,25.0,-100.00,ENE,59,4.0,5.0,54,0.00,,,0.00,,2013-04-21 08:32:00,
2013-04-21 04:42:00,40.0,25.0,-100.00,NNW,344,2.0,2.0,54,0.00,,,0.00,,2013-04-21 08:42:00,
2013-04-21 04:52:00,40.0,25.0,-100.00,NNW,344,2.0,2.0,54,0.00,,,0.00,,2013-04-21 08:52:00,
2013-04-21 05:02:00,40.0,25.0,-100.00,NNW,344,2.0,2.0,54,0.00,,,0.00,,2013-04-21 09:02:00,
2013-04-21 05:12:00,39.0,24.0,-100.00,ENE,59,2.0,3.0,55,0.00,,,0.00,,2013-04-21 09:12:00,
2013-04-21 05:21:00,38.0,26.0,-100.00,North,4,0.0,0.0,62,0.00,,,0.00,,2013-04-21 09:21:00,
2013-04-21 05:33:00,38.0,26.0,-100.00,North,4,0.0,0.0,62,0.00,,,0.00,,2013-04-21 09:33:00,
2013-04-21 05:43:00,33.0,28.0,-100.00,NNW,344,2.0,2.0,82,0.00,,,0.00,,2013-04-21 09:43:00,
2013-04-21 05:53:00,33.0,28.0,-100.00,NNW,328,1.0,2.0,82,0.00,,,0.00,,2013-04-21 09:53:00,
2013-04-21 06:03:00,33.0,28.0,-100.00,NNW,328,1.0,2.0,82,0.00,,,0.00,,2013-04-21 10:03:00,
2013-04-21 06:12:00,33.0,28.0,-100.00,NNW,328,1.0,2.0,82,0.00,,,0.00,,2013-04-21 10:12:00,
2013-04-21 06:22:00,35.0,27.0,-100.00,North,3,2.0,4.0,73,0.00,,,0.00,,2013-04-21 10:22:00,
2013-04-21 06:32:00,35.0,27.0,-100.00,North,3,2.0,4.0,73,0.00,,,0.00,,2013-04-21 10:32:00,
2013-04-21 06:42:00,34.0,27.0,-100.00,NNW,343,2.0,2.0,74,0.00,,,0.00,,2013-04-21 10:42:00,
2013-04-21 06:52:00,34.0,27.0,-100.00,NNW,343,2.0,2.0,74,0.00,,,0.00,,2013-04-21 10:52:00,
2013-04-21 07:03:00,32.0,27.0,-100.00,NNW,346,3.0,4.0,80,0.00,,,0.00,,2013-04-21 11:03:00,
2013-04-21 07:12:00,32.0,27.0,-100.00,NNW,346,3.0,4.0,80,0.00,,,0.00,,2013-04-21 11:12:00,
2013-04-21 07:22:00,34.0,28.0,-100.00,NNE,30,2.0,3.0,78,0.00,,,0.00,,2013-04-21 11:22:00,
2013-04-21 07:34:00,34.0,28.0,-100.00,NNE,30,2.0,3.0,78,0.00,,,0.00,,2013-04-21 11:34:00,
2013-04-21 07:42:00,34.0,28.0,-100.00,NNE,30,2.0,3.0,78,0.00,,,0.00,,2013-04-21 11:42:00,
2013-04-21 08:03:00,37.0,27.0,-100.00,NE,34,3.0,5.0,67,0.00,,,0.00,,2013-04-21 12:03:00,
2013-04-21 08:12:00,37.0,27.0,-100.00,NE,34,3.0,5.0,67,0.00,,,0.00,,2013-04-21 12:12:00,
2013-04-21 08:22:00,38.0,27.0,-100.00,NNE,20,3.0,4.0,65,0.00,,,0.00,,2013-04-21 12:22:00,
2013-04-21 08:32:00,38.0,27.0,-100.00,NNE,20,3.0,4.0,65,0.00,,,0.00,,2013-04-21 12:32:00,
2013-04-21 08:42:00,39.0,27.0,-100.00,NNE,16,3.0,4.0,63,0.00,,,0.00,,2013-04-21 12:42:00,
2013-04-21 08:52:00,39.0,27.0,-100.00,NNE,16,3.0,4.0,63,0.00,,,0.00,,2013-04-21 12:52:00,
2013-04-21 09:01:00,40.0,27.0,-100.00,NNE,21,5.0,6.0,60,0.00,,,0.00,,2013-04-21 13:01:00,
2013-04-21 09:12:00,40.0,27.0,-100.00,NNE,21,5.0,6.0,60,0.00,,,0.00,,2013-04-21 13:12:00,
2013-04-21 09:22:00,41.0,27.0,-100.00,NNE,27,3.0,5.0,59,0.00,,,0.00,,2013-04-21 13:22:00,
2013-04-21 09:32:00,41.0,27.0,-100.00,NNE,27,3.0,5.0,59,0.00,,,0.00,,2013-04-21 13:32:00,
2013-04-21 09:42:00,42.0,27.0,-100.00,ENE,69,5.0,7.0,55,0.00,,,0.00,,2013-04-21 13:42:00,
2013-04-21 09:52:00,42.0,27.0,-100.00,ENE,69,5.0,7.0,55,0.00,,,0.00,,2013-04-21 13:52:00,
2013-04-21 10:02:00,44.0,26.0,-100.00,ESE,103,4.0,8.0,50,0.00,,,0.00,,2013-04-21 14:02:00,
2013-04-21 10:11:00,44.0,26.0,-100.00,ESE,103,4.0,8.0,50,0.00,,,0.00,,2013-04-21 14:11:00,
2013-04-21 10:22:00,44.0,26.0,-100.00,ESE,117,6.0,7.0,48,0.00,,,0.00,,2013-04-21 14:22:00,
2013-04-21 10:32:00,44.0,26.0,-100.00,ESE,117,6.0,7.0,48,0.00,,,0.00,,2013-04-21 14:32:00,
2013-04-21 10:42:00,45.0,28.0,-100.00,ENE,59,5.0,8.0,51,0.00,,,0.00,,2013-04-21 14:42:00,
2013-04-21 10:52:00,45.0,28.0,-100.00,ENE,59,5.0,8.0,51,0.00,,,0.00,,2013-04-21 14:52:00,
2013-04-21 11:02:00,46.0,27.0,-100.00,NNE,24,5.0,8.0,46,0.00,,,0.00,,2013-04-21 15:02:00,
2013-04-21 11:11:00,46.0,27.0,-100.00,NNE,24,5.0,8.0,46,0.00,,,0.00,,2013-04-21 15:11:00,
2013-04-21 11:22:00,47.0,27.0,-100.00,NNE,24,2.0,5.0,46,0.00,,,0.00,,2013-04-21 15:22:00,
2013-04-21 11:33:00,47.0,27.0,-100.00,NNE,24,2.0,5.0,46,0.00,,,0.00,,2013-04-21 15:33:00,
2013-04-21 11:43:00,48.0,26.0,-100.00,SSW,198,3.0,5.0,43,0.00,,,0.00,,2013-04-21 15:43:00,
2013-04-21 11:53:00,48.0,26.0,-100.00,SSW,198,3.0,5.0,43,0.00,,,0.00,,2013-04-21 15:53:00,
2013-04-21 12:03:00,48.0,26.0,-100.00,SSW,198,3.0,5.0,43,0.00,,,0.00,,2013-04-21 16:03:00,
2013-04-21 12:23:00,51.0,28.0,-100.00,SSE,168,1.0,3.0,41,0.00,,,0.00,,2013-04-21 16:23:00,
2013-04-21 12:33:00,51.0,28.0,-100.00,SSE,168,1.0,3.0,41,0.00,,,0.00,,2013-04-21 16:33:00,
2013-04-21 12:42:00,51.0,27.0,-100.00,East,93,2.0,3.0,40,0.00,,,0.00,,2013-04-21 16:42:00,
2013-04-21 12:53:00,51.0,27.0,-100.00,East,93,2.0,3.0,40,0.00,,,0.00,,2013-04-21 16:53:00,
2013-04-21 13:02:00,51.0,30.0,-100.00,West,277,3.0,5.0,44,0.00,,,0.00,,2013-04-21 17:02:00,
2013-04-21 13:12:00,51.0,30.0,-100.00,West,277,3.0,5.0,44,0.00,,,0.00,,2013-04-21 17:12:00,
2013-04-21 13:23:00,52.0,31.0,-100.00,NE,45,3.0,5.0,44,0.00,,,0.00,,2013-04-21 17:23:00,
2013-04-21 13:32:00,52.0,31.0,-100.00,NE,45,3.0,5.0,44,0.00,,,0.00,,2013-04-21 17:32:00,
2013-04-21 13:42:00,53.0,30.0,-100.00,SSE,161,5.0,9.0,41,0.00,,,0.00,,2013-04-21 17:42:00,
2013-04-21 13:52:00,53.0,30.0,-100.00,SSE,161,5.0,9.0,41,0.00,,,0.00,,2013-04-21 17:52:00,
2013-04-21 14:02:00,52.0,29.0,-100.00,South,169,9.0,10.0,40,0.00,,,0.00,,2013-04-21 18:02:00,
2013-04-21 14:11:00,52.0,29.0,-100.00,South,169,9.0,10.0,40,0.00,,,0.00,,2013-04-21 18:11:00,
2013-04-21 14:22:00,52.0,29.0,-100.00,SSE,168,10.0,14.0,42,0.00,,,0.00,,2013-04-21 18:22:00,
2013-04-21 14:33:00,52.0,29.0,-100.00,South,174,7.0,11.0,42,0.00,,,0.00,,2013-04-21 18:33:00,
2013-04-21 14:42:00,52.0,29.0,-100.00,South,174,7.0,11.0,42,0.00,,,0.00,,2013-04-21 18:42:00,
2013-04-21 14:52:00,52.0,29.0,-100.00,South,174,7.0,11.0,42,0.00,,,0.00,,2013-04-21 18:52:00,
2013-04-21 15:02:00,52.0,29.0,-100.00,SSE,165,10.0,16.0,42,0.00,,,0.00,,2013-04-21 19:02:00,
2013-04-21 15:12:00,52.0,29.0,-100.00,SSE,165,10.0,16.0,42,0.00,,,0.00,,2013-04-21 19:12:00,
2013-04-21 15:22:00,53.0,29.0,-100.00,SSW,193,8.0,10.0,40,0.00,,,0.00,,2013-04-21 19:22:00,
2013-04-21 15:32:00,53.0,29.0,-100.00,SSW,193,8.0,10.0,40,0.00,,,0.00,,2013-04-21 19:32:00,
2013-04-21 15:42:00,54.0,29.0,-100.00,WSW,251,3.0,5.0,37,0.00,,,0.00,,2013-04-21 19:42:00,
2013-04-21 15:52:00,54.0,29.0,-100.00,WSW,251,3.0,5.0,37,0.00,,,0.00,,2013-04-21 19:52:00,
2013-04-21 16:02:00,54.0,29.0,-100.00,WSW,251,3.0,5.0,37,0.00,,,0.00,,2013-04-21 20:02:00,
2013-04-21 16:22:00,53.0,31.0,-100.00,SSW,200,7.0,9.0,43,0.00,,,0.00,,2013-04-21 20:22:00,
2013-04-21 16:32:00,53.0,31.0,-100.00,SSW,200,7.0,9.0,43,0.00,,,0.00,,2013-04-21 20:32:00,
2013-04-21 16:42:00,54.0,26.0,-100.00,South,179,7.0,11.0,34,0.00,,,0.00,,2013-04-21 20:42:00,
2013-04-21 16:52:00,54.0,26.0,-100.00,South,179,7.0,11.0,34,0.00,,,0.00,,2013-04-21 20:52:00,
2013-04-21 17:02:00,54.0,30.0,-100.00,SE,144,4.0,8.0,39,0.00,,,0.00,,2013-04-21 21:02:00,
2013-04-21 17:12:00,54.0,30.0,-100.00,SE,144,4.0,8.0,39,0.00,,,0.00,,2013-04-21 21:12:00,
2013-04-21 17:22:00,54.0,29.0,-100.00,SSE,165,9.0,11.0,38,0.00,,,0.00,,2013-04-21 21:22:00,
2013-04-21 17:33:00,54.0,29.0,-100.00,SSE,165,9.0,11.0,38,0.00,,,0.00,,2013-04-21 21:33:00,
2013-04-21 17:43:00,53.0,30.0,-100.00,South,171,6.0,10.0,40,0.00,,,0.00,,2013-04-21 21:43:00,
2013-04-21 17:53:00,53.0,30.0,-100.00,South,171,6.0,10.0,40,0.00,,,0.00,,2013-04-21 21:53:00,
2013-04-21 18:03:00,54.0,29.0,-100.00,ESE,119,7.0,9.0,39,0.00,,,0.00,,2013-04-21 22:03:00,
2013-04-21 18:12:00,54.0,29.0,-100.00,ESE,119,7.0,9.0,39,0.00,,,0.00,,2013-04-21 22:12:00,
2013-04-21 18:22:00,54.0,29.0,-100.00,SSE,150,6.0,9.0,38,0.00,,,0.00,,2013-04-21 22:22:00,
2013-04-21 18:33:00,54.0,29.0,-100.00,SSE,150,6.0,9.0,38,0.00,,,0.00,,2013-04-21 22:33:00,
2013-04-21 18:43:00,55.0,32.0,-100.00,SE,136,7.0,10.0,41,0.00,,,0.00,,2013-04-21 22:43:00,
2013-04-21 18:53:00,55.0,32.0,-100.00,SE,136,7.0,10.0,41,0.00,,,0.00,,2013-04-21 22:53:00,
2013-04-21 19:02:00,54.0,29.0,-100.00,SE,131,9.0,12.0,38,0.00,,,0.00,,2013-04-21 23:02:00,
2013-04-21 19:12:00,54.0,29.0,-100.00,SE,131,9.0,12.0,38,0.00,,,0.00,,2013-04-21 23:12:00,
2013-04-21 19:22:00,53.0,30.0,-100.00,East,100,5.0,8.0,41,0.00,,,0.00,,2013-04-21 23:22:00,
2013-04-21 19:32:00,53.0,29.0,-100.00,ESE,112,6.0,9.0,40,0.00,,,0.00,,2013-04-21 23:32:00,
2013-04-21 19:42:00,53.0,29.0,-100.00,ESE,112,6.0,9.0,40,0.00,,,0.00,,2013-04-21 23:42:00,
2013-04-21 19:52:00,53.0,29.0,-100.00,ESE,112,6.0,9.0,40,0.00,,,0.00,,2013-04-21 23:52:00,
2013-04-21 20:01:00,51.0,29.0,-100.00,SE,137,6.0,8.0,43,0.00,,,0.00,,2013-04-22 00:01:00,
2013-04-21 20:12:00,51.0,29.0,-100.00,SE,137,6.0,8.0,43,0.00,,,0.00,,2013-04-22 00:12:00,